Hourly Data Report for June 10, 2021

TORONTO CITY
ONTARIO
Current Station Operator: ECCC - MSC

43°40'00.000" N
79°24'00.000" W
112.50 m
6158355
71508
XTO

Download Data

Hourly Data (June 2021)
Hourly Data Report for June 10, 2021
TIME
LST
Temp Definition
°C
Dew Point Definition
°C
Rel Hum Definition
%
Precip. Amount Definition
mm

Wind Dir Definition
10's deg

Wind Spd Definition
km/h
Visibility Definition
km
Stn Press Definition
kPa
Hmdx Definition


Wind Chill Definition


Weather Definition


00:00 22.9 14.9 61 0.0       100.51 27   LegendNANA
01:00 22.2 15.1 64 0.0       100.49 26   LegendNANA
02:00 21.3 14.5 65 0.0       100.48 25   LegendNANA
03:00 22.2 8.1 40 0.0       100.45     LegendNANA
04:00 21.2 6.7 39 0.0       100.50     LegendNANA
05:00 20.6 5.9 38 0.0       100.55     LegendNANA
06:00 20.2 6.1 40 0.0       100.56     LegendNANA
07:00 20.2 6.5 41 0.0       100.57     LegendNANA
08:00 20.7 6.7 40 0.0       100.61     LegendNANA
09:00 20.7 6.2 39 0.0       100.61     LegendNANA
10:00 21.4 6.3 38 0.0       100.60     LegendNANA
11:00 21.1 6.3 38 0.0       100.57     LegendNANA
12:00 22.0 7.8 40 0.0       100.58     LegendNANA
13:00 23.6 9.3 40 0.0       100.53 25   LegendNANA
14:00 22.1 6.8 37 0.0       100.50     LegendNANA
15:00 21.8 7.8 41 0.0       100.40     LegendNANA
16:00 23.2 6.7 35 0.0       100.32     LegendNANA
17:00 22.6 6.5 35 0.0       100.27     LegendNANA
18:00 21.6 5.9 36 0.0       100.26     LegendNANA
19:00 21.1 5.8 37 0.0       100.20     LegendNANA
20:00 20.3 6.0 39 0.0       100.19     LegendNANA
21:00 19.7 6.1 41 0.0       100.19     LegendNANA
22:00 19.5 4.7 38 0.0       100.18     LegendNANA
23:00 19.5 5.2 39 0.0       100.17     LegendNANA

Notes on Data Quality.

Legend

  • E = Estimated
  • M = Missing
  • NA = Not Available*
  • [empty] = Indicates an unobserved value
Date modified: